Location: Berg
(47.2344°N, 9.5296°E)
Time: 21:19:31
(UTC+00:00)

Cosmos 1833 Rocket - Pass Details

Date: 24 January 2021
Orbit: 833 x 839 km, 71.0° (Epoch: 04 March)

Event Time Altitude Azimuth Distance (km) Brightness Sun altitude
Rises 18:24:40 0° 333° (NNW) 3,391 6.1 -22.3°
Reaches altitude 10° 18:27:07 10° 334° (NNW) 2,454 5.4 -22.7°
Maximum altitude 18:32:45 82° 62° (ENE) 849 2.5 -23.7°
Enters shadow 18:34:56 39° 146° (SSE) 1,227 3.3 -24.1°
